Voltar ao catálogo

MINOTAUR 4 DEB

AtivoVLEO
NORAD 52037·DEBRIS·🇺🇸 United States

Lançado Jul 15, 2020 de Wallops Flight Facility

Loading…

Próximas Passagens (próximas 24 horas)

TLE

AtualizadoSource: Space-Track

Época: Sep 14, 2026, 06:23 UTC

1 52037U 20046AB  26257.26626509  .00000787  00000-0  74987-4 0  9998
2 52037  53.9781 211.8992 0006685 216.6031 143.4513 15.04581450255284

Acompanhe MINOTAUR 4 DEB em tempo real com AllMySat

Download on the App Store